This is the latest recevied weather packets stored in our database for station/object EA4HRG-10. If no packets are shown the sender has not sent any weather packets the latest 10 day(s).
| Time | Temp. | Humidity | Pressure | Rain* | Wind** | Luminosity | Snow |
|---|---|---|---|---|---|---|---|
| 1787960920 | 11.67° C | 55% | 1022.8 hPa | - | - | - | - |
| 1787960020 | 11.67° C | 53% | 1022.7 hPa | - | - | - | - |
| 1787959120 | 12.22° C | 52% | 1022.6 hPa | - | - | - | - |
| 1787958220 | 12.78° C | 50% | 1022.3 hPa | - | - | - | - |
| 1787957320 | 12.78° C | 50% | 1022.2 hPa | - | - | - | - |
| 1787956420 | 13.33° C | 49% | 1022 hPa | - | - | - | - |
| 1787955520 | 13.89° C | 48% | 1021.6 hPa | - | - | - | - |
| 1787954620 | 14.44° C | 47% | 1021.4 hPa | - | - | - | - |
| 1787953720 | 15° C | 47% | 1021.2 hPa | - | - | - | - |
| 1787953412 | 15° C | 47% | 914.1 hPa | - | - | - | - |
| 1787952512 | 15.56° C | 43% | 914 hPa | - | - | - | - |
| 1787951612 | 16.11° C | 43% | 914 hPa | - | - | - | - |
| 1787950712 | 16.67° C | 41% | 914 hPa | - | - | - | - |
| 1787949812 | 16.67° C | 40% | 913.9 hPa | - | - | - | - |
| 1787948912 | 17.22° C | 39% | 913.8 hPa | - | - | - | - |
| 1787948012 | 18.33° C | 36% | 913.6 hPa | - | - | - | - |
| 1787947112 | 18.89° C | 35% | 913.3 hPa | - | - | - | - |
| 1787946212 | 19.44° C | 33% | 913 hPa | - | - | - | - |
| 1787945312 | 20° C | 32% | 912.8 hPa | - | - | - | - |
| 1787944412 | 21.11° C | 30% | 912.6 hPa | - | - | - | - |
| 1787943512 | 22.22° C | 28% | 912.3 hPa | - | - | - | - |
| 1787942612 | 22.78° C | 27% | 912.2 hPa | - | - | - | - |
| 1787941711 | - | 100% | - | - | - | - | - |
| 1787940811 | - | 100% | - | - | - | - | - |
| 1787939911 | - | 100% | - | - | - | - | - |
* Rain since midnight (hover to see other rain measurements)
** Current wind speed in m/s (hover to see current wind gust speed)